Date String (YYYY-MM-DD hh:mm:ss) UTC,Instrument flags,absolute air pressure of the measurement (hPa),sample flow rate (lpm),inlet stack bypass flow (lpm),air temperature of the measurement (°C),ambient temperature measured by the external sensor (°C),aerosol sample conditioner tube jacket temperature (°C),OPC LED temperature (°C),internal box temperature (°C),relative humidity of the measurement (%),span deviation,mass concentration of particles derived from Lorenz-Mie calculation of OPC scattering (μg/m³),mass concentration of particles derived from Lorenz-Mie calculation of OPC scattering (μg/m³),mass concentration of particles derived from Lorenz-Mie calculation of OPC scattering (μg/m³)
DateTimeUTC,F1_M11,P_M11,Q1_M11,Q2_M11,T1_M11,T2_M11,T3_M11,T4_M11,T5_M11,U1_M11,ZSPAN_M11,X2_M11,X0_M11,X1_M11
2023-07-02 00:00:00,SystemResetWarning,0833.8,5.01,000.00,028.8,024.9,000.0,037.1,030.0,27.0,0000.0,0004.63,0010.90,0004.24
2023-07-02 00:01:00,SystemResetWarning,0833.9,5.00,000.00,028.7,025.3,000.0,037.1,030.1,27.0,0000.0,0004.61,0011.44,0004.22
2023-07-02 00:02:00,SystemResetWarning,0834.0,5.00,000.00,028.7,025.8,000.0,037.1,030.2,27.2,0000.0,0004.58,0011.78,0004.21
2023-07-02 00:03:00,SystemResetWarning,0834.0,5.00,000.00,028.7,026.3,000.0,037.2,030.3,27.7,0000.0,0004.58,0011.78,0004.21
2023-07-02 00:04:00,SystemResetWarning,0834.1,4.99,000.00,028.8,026.7,000.0,037.2,030.4,27.8,0000.1,0004.55,0011.25,0004.22
2023-07-02 00:05:00,SystemResetWarning,0834.2,4.99,000.00,028.8,027.1,000.0,037.2,030.5,29.0,-000.0,0004.54,0010.76,0004.22
2023-07-02 00:06:00,SystemResetWarning,0834.0,4.99,000.00,028.8,027.3,000.0,037.2,030.5,30.5,-000.1,0004.53,0010.61,0004.20
2023-07-02 00:07:00,SystemResetWarning,0834.1,5.01,000.00,028.9,027.6,000.0,037.3,030.6,28.9,0000.0,0004.52,0011.07,0004.20
2023-07-02 00:08:00,SystemResetWarning,0834.6,5.02,000.00,028.9,027.8,000.0,037.3,030.7,26.6,0000.0,0004.59,0012.20,0004.22
2023-07-02 00:09:00,SystemResetWarning,0834.2,4.99,000.00,029.0,027.9,000.0,037.3,030.7,24.4,0000.0,0004.74,0012.89,0004.28
2023-07-02 00:10:00,SystemResetWarning,0833.9,4.98,000.00,029.0,027.0,000.0,037.3,030.7,22.7,0000.0,0004.79,0012.70,0004.29
2023-07-02 00:11:00,SystemResetWarning,0833.7,5.01,000.00,029.0,025.5,000.0,037.2,030.4,23.1,0000.0,0004.74,0011.29,0004.23
2023-07-02 00:12:00,SystemResetWarning,0833.7,5.01,000.00,028.9,025.2,000.0,037.1,030.3,24.5,0000.0,0004.65,0010.56,0004.15
2023-07-02 00:13:00,SystemResetWarning,0833.8,5.00,000.00,028.8,025.4,000.0,037.2,030.2,25.3,0000.0,0004.55,0009.87,0004.07
2023-07-02 00:14:00,SystemResetWarning,0833.8,5.00,000.00,028.8,025.8,000.0,037.2,030.2,24.3,0000.0,0004.45,0009.69,0003.98
2023-07-02 00:15:00,SystemResetWarning,0833.8,5.01,000.00,028.8,026.2,000.0,037.2,030.3,25.2,0000.0,0004.34,0009.56,0003.89
2023-07-02 00:16:00,SystemResetWarning,0833.8,4.99,000.00,028.8,026.6,000.0,037.2,030.4,25.0,0000.0,0004.25,0009.44,0003.80
2023-07-02 00:17:00,SystemResetWarning,0833.7,4.98,000.00,028.8,026.9,000.0,037.2,030.4,24.1,0000.0,0004.16,0009.28,0003.72
2023-07-02 00:18:00,SystemResetWarning,0833.7,5.02,000.00,028.9,027.2,000.0,037.3,030.5,24.5,0000.0,0004.06,0008.66,0003.64
2023-07-02 00:19:00,SystemResetWarning,0833.7,4.99,000.00,028.9,027.4,000.0,037.3,030.6,24.7,0000.0,0003.93,0007.34,0003.54
2023-07-02 00:20:00,SystemResetWarning,0833.8,4.99,000.00,028.9,027.6,000.0,037.3,030.6,24.7,0000.0,0003.66,0005.76,0003.39
2023-07-02 00:21:00,SystemResetWarning,0833.8,5.01,000.00,029.0,027.7,000.0,037.3,030.7,26.3,0000.0,0003.54,0005.38,0003.30
2023-07-02 00:22:00,SystemResetWarning,0833.7,5.01,000.00,029.0,027.9,000.0,037.4,030.7,27.2,0000.0,0003.49,0004.74,0003.27
2023-07-02 00:23:00,SystemResetWarning,0833.8,5.01,000.00,029.1,028.0,000.0,037.4,030.8,26.4,0000.0,0003.54,0005.01,0003.28
2023-07-02 00:24:00,SystemResetWarning,0833.8,4.97,000.00,029.1,026.7,000.0,037.3,030.6,25.5,0000.0,0003.54,0005.04,0003.28
2023-07-02 00:25:00,SystemResetWarning,0833.8,5.01,000.00,029.0,025.3,000.0,037.2,030.4,24.4,0000.0,0003.58,0005.26,0003.29
2023-07-02 00:26:00,SystemResetWarning,0833.7,5.01,000.00,028.9,025.1,000.0,037.2,030.1,24.2,0000.0,0003.60,0005.45,0003.29
2023-07-02 00:27:00,SystemResetWarning,0833.7,5.00,000.00,028.8,025.3,000.0,037.2,030.1,24.1,0000.0,0003.58,0005.41,0003.28
2023-07-02 00:28:00,SystemResetWarning,0833.7,4.99,000.00,028.8,025.8,000.0,037.2,030.2,24.4,0000.0,0003.57,0005.38,0003.28
2023-07-02 00:29:00,SystemResetWarning,0833.7,5.00,000.00,028.8,026.2,000.0,037.3,030.2,25.4,0000.0,0003.59,0005.41,0003.30
2023-07-02 00:30:00,SystemResetWarning,0833.7,5.00,000.00,028.8,026.6,000.0,037.3,030.3,25.6,0000.0,0003.58,0005.40,0003.29
2023-07-02 00:31:00,SystemResetWarning,0833.7,4.99,000.00,028.8,026.9,000.0,037.3,030.4,26.3,0000.0,0003.60,0005.76,0003.29
2023-07-02 00:32:00,SystemResetWarning,0833.7,5.01,000.00,028.9,027.1,000.0,037.3,030.5,26.7,0000.0,0003.60,0005.70,0003.28
2023-07-02 00:33:00,SystemResetWarning,0833.7,5.00,000.00,028.9,027.3,000.0,037.3,030.5,27.2,0000.0,0003.59,0005.59,0003.28
2023-07-02 00:34:00,SystemResetWarning,0833.7,4.99,000.00,028.9,027.5,000.0,037.3,030.6,27.8,0000.0,0003.57,0005.44,0003.29
2023-07-02 00:35:00,SystemResetWarning,0833.7,4.99,000.00,029.0,027.7,000.0,037.4,030.7,26.2,0000.0,0003.59,0005.45,0003.30
2023-07-02 00:36:00,SystemResetWarning,0833.7,5.01,000.00,029.0,027.8,000.0,037.4,030.7,26.8,0000.0,0003.56,0005.29,0003.31
2023-07-02 00:37:00,SystemResetWarning,0833.7,5.01,000.00,029.1,027.9,000.0,037.4,030.8,26.9,0000.0,0003.56,0005.19,0003.31
2023-07-02 00:38:00,SystemResetWarning,0833.7,4.99,000.00,029.1,028.0,000.0,037.4,030.8,28.1,0000.0,0003.60,0005.35,0003.33
2023-07-02 00:39:00,SystemResetWarning,0833.7,4.98,000.00,029.1,026.5,000.0,037.4,030.6,28.7,0000.0,0003.62,0005.46,0003.33
2023-07-02 00:40:00,SystemResetWarning,0833.7,5.01,000.00,029.0,025.2,000.0,037.3,030.4,28.8,0000.0,0003.61,0005.49,0003.33
2023-07-02 00:41:00,SystemResetWarning,0833.7,5.01,000.00,028.9,025.0,000.0,037.2,030.2,28.8,0000.0,0003.63,0005.64,0003.33
2023-07-02 00:42:00,SystemResetWarning,0833.7,5.01,000.00,028.8,025.4,000.0,037.3,030.1,30.0,0000.0,0003.66,0005.45,0003.35
2023-07-02 00:43:00,SystemResetWarning,0833.6,4.99,000.00,028.8,025.8,000.0,037.3,030.2,30.1,0000.0,0003.67,0005.39,0003.38
2023-07-02 00:44:00,SystemResetWarning,0833.5,5.00,000.00,028.8,026.2,000.0,037.3,030.3,29.1,0000.0,0003.69,0005.51,0003.38
2023-07-02 00:45:00,SystemResetWarning,0833.5,5.00,000.00,028.8,026.6,000.0,037.3,030.3,28.3,0000.0,0003.74,0005.79,0003.39
2023-07-02 00:46:00,SystemResetWarning,0833.5,5.01,000.00,028.9,026.9,000.0,037.3,030.4,28.4,0000.0,0003.73,0005.95,0003.39
2023-07-02 00:47:00,SystemResetWarning,0833.5,4.99,000.00,028.9,027.1,000.0,037.3,030.5,28.2,0000.0,0003.74,0006.06,0003.38
2023-07-02 00:48:00,SystemResetWarning,0833.5,5.00,000.00,028.9,027.3,000.0,037.4,030.6,27.9,0000.0,0003.76,0006.11,0003.39
2023-07-02 00:49:00,SystemResetWarning,0833.6,4.99,000.00,028.9,027.5,000.0,037.4,030.6,27.0,0000.0,0003.76,0006.16,0003.39
2023-07-02 00:50:00,SystemResetWarning,0833.6,5.00,000.00,029.0,027.7,000.0,037.4,030.6,27.5,0000.0,0003.75,0006.35,0003.39
2023-07-02 00:51:00,SystemResetWarning,0833.6,5.00,000.00,029.0,027.8,000.0,037.4,030.7,28.2,0000.0,0003.75,0006.75,0003.39
2023-07-02 00:52:00,SystemResetWarning,0833.6,5.00,000.00,029.1,027.9,000.0,037.4,030.7,28.3,0000.0,0003.73,0006.70,0003.40
2023-07-02 00:53:00,SystemResetWarning,0833.6,5.00,000.00,029.1,027.9,000.0,037.5,030.8,27.9,0000.0,0003.73,0007.24,0003.40
2023-07-02 00:54:00,SystemResetWarning,0833.6,4.99,000.00,029.1,026.5,000.0,037.4,030.6,27.1,0000.0,0003.74,0007.49,0003.39
2023-07-02 00:55:00,SystemResetWarning,0833.6,5.02,000.00,029.0,025.3,000.0,037.3,030.4,27.2,0000.0,0003.73,0007.81,0003.40
2023-07-02 00:56:00,SystemResetWarning,0833.4,5.01,000.00,028.9,025.2,000.0,037.2,030.2,27.0,0000.0,0003.68,0007.64,0003.41
2023-07-02 00:57:00,SystemResetWarning,0833.4,5.00,000.00,028.8,025.5,000.0,037.3,030.1,27.2,0000.0,0003.69,0007.54,0003.42
2023-07-02 00:58:00,SystemResetWarning,0833.5,5.01,000.00,028.8,025.9,000.0,037.3,030.2,28.1,0000.0,0003.70,0007.48,0003.44
2023-07-02 00:59:00,SystemResetWarning,0833.4,5.01,000.00,028.8,026.3,000.0,037.3,030.3,29.2,0000.0,0003.68,0007.44,0003.44
